Project,Study,Ord_Occ,Event_Num,Cast_ID,Date_Time_UTC,Date_Time_PST,Lat_Dec,Lon_Dec,Sta_ID,Line,Sta,Depth,Pressure,PrQ,Temp1,Temp1Q,Temp2,Temp2Q,TempAve,Salt1,Salt1Q,Salt1_Corr,Salt2,Salt2Q,Salt2_Corr,SaltAve_Corr,Ox1,Ox1Q,Ox1_CruiseCorr,Ox1_StaCorr,Ox2,Ox2Q,Ox2_CruiseCorr,Ox2_StaCorr,OxAve_StaCorr,Ox1uM,Ox1uM_CruiseCorr,Ox1uM_StaCorr,Ox2uM,Ox2uM_CruiseCorr,Ox2uM_StaCorr,OxAveuM_StaCorr,FluorV,FluorQ,EstChl_CruiseCorr,EstChl_StaCorr,ISUSV,ISUSQ,EstNO3_CruiseCorr,EstNO3_StaCorr,SigThetaTS1,SigThetaTS1Q,SigThetaTS2,SigThetaTS2Q,BAT,XMiss,TransQ,pH,pHQ,SPAR,SPARQ,PAR,PARQ,PoT1,PoT2,DynHt,SVA,OxSat1,OxSat2,BTL_Depth,BTL_Temp,SaltB,OxB,OxBuM,Chl-a,Phaeo,NO3,NO2,NH4,PO4,SIL
CalCOFI,2101RL,077,,2101_077d,03-Feb-2021 15:25:10,03-Feb-2021 07:25:10,35.54488,-123.07387,070.0 070.0,070.0,070.0,3.000,3.022,,11.8696,,11.8699,,11.8698,32.9878,,32.9936,32.9863,,32.9883,32.9910,5.9836,,6.2623,6.1476,5.8697,,6.2322,6.1399,6.1438,260.697,273.1578,268.3253,255.734,290.3516,267.9905,268.1579,0.1725,,1.1653,, ,, , ,25.0510,,25.0498,,0.9070,79.7127,,,,1.0198E+02,,1.1431E+00,,11.8692,11.8695,0.0025,289.988,97.364,95.510,3,,32.9890,6.244,272.53,,,,,,,
CalCOFI,2101RL,077,,2101_077d,03-Feb-2021 15:25:16,03-Feb-2021 07:25:16,35.54487,-123.07390,070.0 070.0,070.0,070.0,4.000,4.029,,11.8696,,11.8698,,11.8697,32.9878,,32.9936,32.9864,,32.9884,32.9910,5.9858,,6.2646,6.1498,5.8937,,6.2577,6.1653,6.1576,260.795,273.2604,268.4268,256.779,290.4605,269.0958,268.7613,0.1701,,1.1456,, ,, , ,25.0511,,25.0499,,0.9066,79.7198,,,,1.0862E+02,,8.5953E-01,,11.8691,11.8692,0.0064,290.011,97.401,95.900,,,,,,,,,,,,
CalCOFI,2101RL,077,,2101_077d,03-Feb-2021 15:25:18,03-Feb-2021 07:25:18,35.54486,-123.07392,070.0 070.0,070.0,070.0,5.000,5.037,,11.8735,,11.8732,,11.8734,32.9874,,32.9932,32.9860,,32.9880,32.9906,5.9876,,6.2665,6.1517,5.8867,,6.2503,6.1579,6.1548,260.873,273.3421,268.5075,256.476,290.5473,268.7753,268.6414,0.1636,,1.0924,, ,, , ,25.0500,,25.0489,,0.9044,79.7641,,,,1.0381E+02,,5.3667E-01,,11.8728,11.8725,0.0094,290.134,97.438,95.794,,,,,,,,,,,,
CalCOFI,2101RL,077,,2101_077d,03-Feb-2021 15:25:19,03-Feb-2021 07:25:19,35.54485,-123.07394,070.0 070.0,070.0,070.0,6.000,6.044,,11.8729,,11.8730,,11.8730,32.9875,,32.9933,32.9861,,32.9881,32.9907,5.9815,,6.2601,6.1454,5.8831,,6.2464,6.1541,6.1498,260.606,273.0626,268.2310,256.320,290.2504,268.6103,268.4207,0.1613,,1.0735,, ,, , ,25.0502,,25.0491,,0.9065,79.7225,,,,1.0263E+02,,2.6671E-01,,11.8721,11.8722,0.0123,290.139,97.337,95.735,,,,,,,,,,,,
CalCOFI,2101RL,077,,2101_077d,03-Feb-2021 15:25:22,03-Feb-2021 07:25:22,35.54484,-123.07396,070.0 070.0,070.0,070.0,7.000,7.051,,11.8734,,11.8738,,11.8736,32.9877,,32.9935,32.9858,,32.9878,32.9907,5.9781,,6.2566,6.1419,5.8805,,6.2437,6.1513,6.1466,260.455,272.9045,268.0747,256.206,290.0824,268.4898,268.2823,0.1662,,1.1137,, ,, , ,25.0503,,25.0488,,0.9069,79.7135,,,,1.0702E+02,,1.7016E-01,,11.8726,11.8729,0.0152,290.160,97.282,95.694,,,,,,,,,,,,
CalCOFI,2101RL,077,,2101_077d,03-Feb-2021 15:25:23,03-Feb-2021 07:25:23,35.54484,-123.07398,070.0 070.0,070.0,070.0,8.000,8.059,,11.8734,,11.8737,,11.8736,32.9876,,32.9934,32.9860,,32.9880,32.9907,5.9930,,6.2722,6.1573,5.8802,,6.2434,6.1510,6.1542,261.109,273.5891,268.7519,256.193,290.8097,268.4760,268.6140,0.1637,,1.0932,, ,, , ,25.0503,,25.0490,,0.9080,79.6924,,,,1.0716E+02,,8.1273E-03,,11.8723,11.8727,0.0181,290.182,97.526,95.689,,,,,,,,,,,,
CalCOFI,2101RL,077,,2101_077d,03-Feb-2021 15:25:24,03-Feb-2021 07:25:24,35.54484,-123.07398,070.0 070.0,070.0,070.0,9.000,9.066,,11.8738,,11.8740,,11.8739,32.9892,,32.9950,32.9873,,32.9893,32.9922,5.9967,,6.2760,6.1611,5.8844,,6.2478,6.1555,6.1583,261.266,273.7534,268.9145,256.373,290.9843,268.6664,268.7905,0.1679,,1.1276,, ,, , ,25.0515,,25.0499,,0.9064,79.7231,,,,1.0564E+02,,6.2305E-04,,11.8726,11.8729,0.0211,290.092,97.586,95.758,,,,,,,,,,,,
CalCOFI,2101RL,077,,2101_077d,03-Feb-2021 15:25:26,03-Feb-2021 07:25:26,35.54482,-123.07399,070.0 070.0,070.0,070.0,10.000,10.073,,11.8740,,11.8743,,11.8742,32.9899,,32.9957,32.9884,,32.9904,32.9931,5.9998,,6.2793,6.1643,5.8644,,6.2266,6.1343,6.1493,261.400,273.8937,269.0532,255.505,291.1333,267.7484,268.4008,0.1624,,1.0825,, ,, , ,25.0519,,25.0507,,0.9072,79.7084,,,,1.0789E+02,,-3.125E-06,,11.8728,11.8730,0.0240,290.073,97.637,95.435,,,,,,,,,,,,
CalCOFI,2101RL,077,,2101_077d,03-Feb-2021 15:25:28,03-Feb-2021 07:25:28,35.54480,-123.07400,070.0 070.0,070.0,070.0,11.000,11.081,,11.8729,,11.8736,,11.8733,32.9937,,32.9995,32.9944,,32.9964,32.9980,5.9726,,6.2508,6.1362,5.8594,,6.2213,6.1291,6.1327,260.214,272.6522,267.8251,255.287,289.8144,267.5178,267.6715,0.1724,,1.1645,, ,, , ,25.0551,,25.0556,,0.9055,79.7419,,,,1.2426E+02,,1.0000E-12,,11.8715,11.8722,0.0269,289.793,97.195,95.356,11,,33.0105,6.234,272.09,,,,,,,
CalCOFI,2101RL,077,,2101_077d,03-Feb-2021 15:25:30,03-Feb-2021 07:25:30,35.54480,-123.07402,070.0 070.0,070.0,070.0,12.000,12.088,,11.8709,,11.8709,,11.8709,33.0130,,33.0188,33.0120,,33.0140,33.0164,5.9619,,6.2396,6.1251,5.8640,,6.2262,6.1339,6.1295,259.747,272.1634,267.3416,255.480,289.2951,267.7219,267.5318,0.1677,,1.1260,, ,, , ,25.0705,,25.0697,,0.9113,79.6253,,,,1.2629E+02,,1.0000E-12,,11.8694,11.8693,0.0298,288.352,97.030,95.435,,,,,,,,,,,,
CalCOFI,2101RL,077,,2101_077d,03-Feb-2021 15:25:32,03-Feb-2021 07:25:32,35.54480,-123.07402,070.0 070.0,070.0,070.0,13.000,13.096,,11.8627,,11.8620,,11.8624,33.0268,,33.0326,33.0263,,33.0283,33.0305,5.9704,,6.2485,6.1339,5.8602,,6.2221,6.1299,6.1319,260.111,272.5444,267.7185,255.314,289.6999,267.5463,267.6324,0.1729,,1.1686,, ,, , ,25.0828,,25.0825,,0.9149,79.5554,,,,1.1782E+02,,1.0000E-12,,11.8611,11.8604,0.0327,287.213,97.158,95.365,,,,,,,,,,,,
CalCOFI,2101RL,077,,2101_077d,03-Feb-2021 15:25:36,03-Feb-2021 07:25:36,35.54479,-123.07407,070.0 070.0,070.0,070.0,14.000,14.103,,11.8258,,11.8238,,11.8248,33.0582,,33.0640,33.0583,,33.0603,33.0622,5.9365,,6.2130,6.0989,5.8424,,6.2032,6.1111,6.1050,258.631,270.9951,266.1860,254.528,288.0541,266.7150,266.4505,0.1861,,1.2767,, ,, , ,25.1141,,25.1145,,0.9210,79.4347,,,,1.3168E+02,,1.0000E-12,,11.8240,11.8220,0.0356,284.258,96.552,95.017,,,,,,,,,,,,
CalCOFI,2101RL,077,,2101_077d,03-Feb-2021 15:25:41,03-Feb-2021 07:25:41,35.54477,-123.07409,070.0 070.0,070.0,070.0,15.000,15.110,,11.7426,,11.7418,,11.7422,33.1159,,33.1217,33.1150,,33.1170,33.1194,5.9161,,6.1917,6.0778,5.8265,,6.1863,6.0943,6.0861,257.726,270.0478,265.2489,253.820,287.0478,265.9662,265.6076,0.2264,,1.6069,, ,, , ,25.1743,,25.1738,,0.9492,78.8750,,,,1.5642E+02,,1.0000E-12,,11.7407,11.7400,0.0384,278.546,96.086,94.628,,,,,,,,,,,,
CalCOFI,2101RL,077,,2101_077d,03-Feb-2021 15:25:45,03-Feb-2021 07:25:45,35.54476,-123.07412,070.0 070.0,070.0,070.0,16.000,16.118,,11.7213,,11.7217,,11.7215,33.1289,,33.1347,33.1271,,33.1291,33.1319,5.9059,,6.1810,6.0672,5.8236,,6.1832,6.0913,6.0793,257.276,269.5767,264.7829,253.691,286.5473,265.8297,265.3063,0.2283,,1.6225,, ,, , ,25.1883,,25.1869,,0.9525,78.8098,,,,1.5110E+02,,1.0000E-12,,11.7193,11.7197,0.0412,277.239,95.885,94.548,,,,,,,,,,,,
CalCOFI,2101RL,077,,2101_077d,03-Feb-2021 15:25:48,03-Feb-2021 07:25:48,35.54476,-123.07413,070.0 070.0,070.0,070.0,17.000,17.125,,11.7189,,11.7190,,11.7190,33.1303,,33.1361,33.1288,,33.1308,33.1335,5.9173,,6.1929,6.0790,5.8142,,6.1733,6.0813,6.0802,257.773,270.0970,265.2975,253.281,287.1000,265.3961,265.3468,0.2305,,1.6405,, ,, , ,25.1900,,25.1888,,0.9481,78.8980,,,,1.5161E+02,,1.0000E-12,,11.7167,11.7169,0.0440,277.108,96.066,94.391,,,,,,,,,,,,
CalCOFI,2101RL,077,,2101_077d,03-Feb-2021 15:25:51,03-Feb-2021 07:25:51,35.54476,-123.07416,070.0 070.0,070.0,070.0,18.000,18.133,,11.7193,,11.7194,,11.7194,33.1308,,33.1366,33.1297,,33.1317,33.1342,5.9198,,6.1956,6.0816,5.8192,,6.1786,6.0866,6.0841,257.883,270.2121,265.4114,253.502,287.2223,265.6299,265.5207,0.2182,,1.5398,, ,, , ,25.1902,,25.1894,,0.9482,78.8940,,,,1.6874E+02,,1.0000E-12,,11.7170,11.7172,0.0468,277.107,96.108,94.475,,,,,,,,,,,,
CalCOFI,2101RL,077,,2101_077d,03-Feb-2021 15:25:52,03-Feb-2021 07:25:52,35.54475,-123.07417,070.0 070.0,070.0,070.0,19.000,19.140,,11.7190,,11.7192,,11.7191,33.1320,,33.1378,33.1306,,33.1326,33.1352,5.9128,,6.1882,6.0744,5.8298,,6.1898,6.0978,6.0861,257.576,269.8908,265.0935,253.961,286.8810,266.1153,265.6044,0.2238,,1.5856,, ,, , ,25.1913,,25.1901,,0.9456,78.9465,,,,1.8521E+02,,1.0000E-12,,11.7166,11.7168,0.0496,277.032,95.994,94.646,,,,,,,,,,,,
CalCOFI,2101RL,077,,2101_077d,03-Feb-2021 15:25:55,03-Feb-2021 07:25:55,35.54474,-123.07420,070.0 070.0,070.0,070.0,20.000,20.147,,11.7210,,11.7211,,11.7211,33.1350,,33.1408,33.1335,,33.1355,33.1382,5.9023,,6.1772,6.0635,5.8136,,6.1726,6.0807,6.0721,257.117,269.4103,264.6183,253.256,286.3705,265.3697,264.9940,0.2313,,1.6471,, ,, , ,25.1933,,25.1921,,0.9416,79.0265,,,,1.9605E+02,,1.0000E-12,,11.7185,11.7186,0.0524,276.868,95.829,94.389,20,,33.1350,6.147,268.25,,,,,,,
CalCOFI,2101RL,077,,2101_077d,03-Feb-2021 15:25:58,03-Feb-2021 07:25:58,35.54474,-123.07424,070.0 070.0,070.0,070.0,21.000,21.155,,11.7226,,11.7228,,11.7227,33.1377,,33.1435,33.1365,,33.1385,33.1410,5.9066,,6.1817,6.0680,5.8066,,6.1652,6.0733,6.0707,257.308,269.6102,264.8160,252.949,286.5829,265.0450,264.9305,0.2207,,1.5602,, ,, , ,25.1951,,25.1941,,0.9328,79.2000,,,,1.7286E+02,,1.0000E-12,,11.7199,11.7201,0.0552,276.716,95.905,94.280,,,,,,,,,,,,
CalCOFI,2101RL,077,,2101_077d,03-Feb-2021 15:25:59,03-Feb-2021 07:25:59,35.54474,-123.07427,070.0 070.0,070.0,070.0,22.000,22.162,,11.7209,,11.7212,,11.7211,33.1381,,33.1439,33.1364,,33.1384,33.1412,5.9044,,6.1794,6.0657,5.8027,,6.1610,6.0692,6.0675,257.208,269.5055,264.7125,252.780,286.4717,264.8662,264.7894,0.2285,,1.6242,, ,, , ,25.1957,,25.1944,,0.9306,79.2421,,,,1.4178E+02,,1.0000E-12,,11.7181,11.7184,0.0580,276.680,95.865,94.214,,,,,,,,,,,,
CalCOFI,2101RL,077,,2101_077d,03-Feb-2021 15:26:00,03-Feb-2021 07:26:00,35.54476,-123.07430,070.0 070.0,070.0,070.0,23.000,23.170,,11.7218,,11.7221,,11.7220,33.1392,,33.1450,33.1377,,33.1397,33.1424,5.9032,,6.1782,6.0645,5.7966,,6.1546,6.0628,6.0637,257.156,269.4511,264.6586,252.513,286.4139,264.5838,264.6212,0.2211,,1.5635,, ,, , ,25.1964,,25.1953,,0.9256,79.3433,,,,1.2624E+02,,1.0000E-12,,11.7189,11.7192,0.0607,276.639,95.848,94.117,,,,,,,,,,,,
CalCOFI,2101RL,077,,2101_077d,03-Feb-2021 15:26:01,03-Feb-2021 07:26:01,35.54476,-123.07430,070.0 070.0,070.0,070.0,24.000,24.177,,11.7203,,11.7204,,11.7204,33.1399,,33.1457,33.1385,,33.1405,33.1431,5.8939,,6.1685,6.0548,5.8040,,6.1624,6.0706,6.0627,256.751,269.0271,264.2393,252.834,285.9635,264.9233,264.5813,0.2328,,1.6594,, ,, , ,25.1973,,25.1962,,0.9266,79.3213,,,,1.5408E+02,,1.0000E-12,,11.7173,11.7174,0.0635,276.583,95.695,94.234,,,,,,,,,,,,
CalCOFI,2101RL,077,,2101_077d,03-Feb-2021 15:26:04,03-Feb-2021 07:26:04,35.54476,-123.07437,070.0 070.0,070.0,070.0,25.000,25.185,,11.7192,,11.7193,,11.7193,33.1400,,33.1458,33.1386,,33.1406,33.1432,5.8928,,6.1673,6.0537,5.7993,,6.1574,6.0656,6.0597,256.705,268.9790,264.1917,252.631,285.9124,264.7086,264.4502,0.2293,,1.6307,, ,, , ,25.1976,,25.1965,,0.9324,79.2075,,,,2.2418E+02,,1.0000E-12,,11.7161,11.7162,0.0663,276.579,95.675,94.156,,,,,,,,,,,,
CalCOFI,2101RL,077,,2101_077d,03-Feb-2021 15:26:05,03-Feb-2021 07:26:05,35.54476,-123.07436,070.0 070.0,070.0,070.0,26.000,26.192,,11.7183,,11.7185,,11.7184,33.1404,,33.1462,33.1390,,33.1410,33.1436,5.8762,,6.1499,6.0365,5.7827,,6.1398,6.0481,6.0423,255.980,268.2201,263.4409,251.910,285.1062,263.9460,263.6935,0.2215,,1.5668,, ,, , ,25.1981,,25.1969,,0.9246,79.3624,,,,1.9712E+02,,1.0000E-12,,11.7151,11.7152,0.0691,276.555,95.403,93.886,,,,,,,,,,,,
CalCOFI,2101RL,077,,2101_077d,03-Feb-2021 15:26:06,03-Feb-2021 07:26:06,35.54476,-123.07436,070.0 070.0,070.0,070.0,27.000,27.199,,11.7175,,11.7176,,11.7176,33.1420,,33.1478,33.1409,,33.1429,33.1454,5.8492,,6.1217,6.0086,5.7601,,6.1158,6.0242,6.0164,254.803,266.9880,262.2222,250.923,283.7973,262.9021,262.5622,0.2158,,1.5201,, ,, , ,25.1995,,25.1986,,0.9202,79.4502,,,,1.5994E+02,,1.0000E-12,,11.7141,11.7142,0.0719,276.441,94.964,93.518,,,,,,,,,,,,
CalCOFI,2101RL,077,,2101_077d,03-Feb-2021 15:26:08,03-Feb-2021 07:26:08,35.54476,-123.07436,070.0 070.0,070.0,070.0,28.000,28.207,,11.7129,,11.7130,,11.7130,33.1482,,33.1540,33.1468,,33.1488,33.1514,5.8338,,6.1056,5.9927,5.7582,,6.1138,6.0222,6.0075,254.132,266.2856,261.5273,250.837,283.0512,262.8112,262.1693,0.2004,,1.3939,, ,, , ,25.2052,,25.2041,,0.9139,79.5752,,,,1.4087E+02,,1.0000E-12,,11.7094,11.7095,0.0747,275.928,94.709,93.481,,,,,,,,,,,,
CalCOFI,2101RL,077,,2101_077d,03-Feb-2021 15:26:09,03-Feb-2021 07:26:09,35.54475,-123.07440,070.0 070.0,070.0,070.0,29.000,29.214,,11.7091,,11.7092,,11.7092,33.1516,,33.1574,33.1502,,33.1522,33.1548,5.8228,,6.0940,5.9813,5.7429,,6.0975,6.0061,5.9937,253.654,265.7852,261.0324,250.172,282.5196,262.1078,261.5701,0.1896,,1.3054,, ,, , ,25.2085,,25.2074,,0.9065,79.7228,,,,1.4446E+02,,1.0000E-12,,11.7055,11.7056,0.0774,275.635,94.526,93.228,,,,,,,,,,,,
CalCOFI,2101RL,077,,2101_077d,03-Feb-2021 15:26:11,03-Feb-2021 07:26:11,35.54474,-123.07442,070.0 070.0,070.0,070.0,30.000,30.222,,11.7066,,11.7067,,11.7067,33.1535,,33.1593,33.1522,,33.1542,33.1568,5.8074,,6.0779,5.9654,5.7265,,6.0801,5.9887,5.9771,252.979,265.0786,260.3334,249.455,281.7690,261.3495,260.8415,0.1841,,1.2603,, ,, , ,25.2105,,25.2095,,0.8935,79.9816,,,,1.5093E+02,,1.0000E-12,,11.7028,11.7030,0.0802,275.470,94.271,92.957,,,,,,,,,,,,
CalCOFI,2101RL,077,,2101_077d,03-Feb-2021 15:26:12,03-Feb-2021 07:26:12,35.54474,-123.07444,070.0 070.0,070.0,070.0,31.000,31.229,,11.7037,,11.7040,,11.7039,33.1555,,33.1613,33.1540,,33.1560,33.1587,5.7899,,6.0596,5.9473,5.7003,,6.0523,5.9611,5.9542,252.219,264.2830,259.5465,248.316,280.9239,260.1448,259.8457,0.1782,,1.2120,, ,, , ,25.2126,,25.2114,,0.8871,80.1099,,,,1.4436E+02,,1.0000E-12,,11.6998,11.7001,0.0830,275.292,93.983,92.528,,,,,,,,,,,,
CalCOFI,2101RL,077,,2101_077d,03-Feb-2021 15:26:14,03-Feb-2021 07:26:14,35.54474,-123.07446,070.0 070.0,070.0,070.0,32.000,32.237,,11.6996,,11.6996,,11.6996,33.1597,,33.1655,33.1585,,33.1605,33.1630,5.7533,,6.0213,5.9095,5.6765,,6.0270,5.9359,5.9227,250.623,262.6124,257.8939,247.278,279.1491,259.0470,258.4705,0.1618,,1.0776,, ,, , ,25.2167,,25.2158,,0.8806,80.2410,,,,1.4227E+02,,1.0000E-12,,11.6956,11.6956,0.0858,274.932,93.383,92.136,,,,,,,,,,,,
CalCOFI,2101RL,077,,2101_077d,03-Feb-2021 15:26:16,03-Feb-2021 07:26:16,35.54474,-123.07447,070.0 070.0,070.0,070.0,33.000,33.244,,11.6968,,11.6972,,11.6970,33.1628,,33.1686,33.1614,,33.1634,33.1660,5.7329,,6.0000,5.8884,5.6532,,6.0023,5.9113,5.8999,249.732,261.6797,256.9712,246.260,278.1583,257.9703,257.4708,0.1527,,1.0030,, ,, , ,25.2196,,25.2184,,0.8719,80.4154,,,,1.5233E+02,,1.0000E-12,,11.6927,11.6930,0.0885,274.676,93.048,91.754,,,,,,,,,,,,
CalCOFI,2101RL,077,,2101_077d,03-Feb-2021 15:26:17,03-Feb-2021 07:26:17,35.54474,-123.07448,070.0 070.0,070.0,070.0,34.000,34.252,,11.6961,,11.6965,,11.6963,33.1666,,33.1724,33.1652,,33.1672,33.1698,5.6869,,5.9518,5.8409,5.6182,,5.9651,5.8744,5.8577,247.730,259.5840,254.8982,244.738,275.9320,256.3605,255.6294,0.1407,,0.9047,, ,, , ,25.2227,,25.2216,,0.8573,80.7095,,,,1.6540E+02,,1.0000E-12,,11.6918,11.6922,0.0913,274.403,92.303,91.188,,,,,,,,,,,,
CalCOFI,2101RL,077,,2101_077d,03-Feb-2021 15:26:18,03-Feb-2021 07:26:18,35.54473,-123.07450,070.0 070.0,070.0,070.0,35.000,35.259,,11.7326,,11.7396,,11.7361,33.1846,,33.1904,33.1852,,33.1872,33.1888,5.6587,,5.9223,5.8117,5.5663,,5.9100,5.8196,5.8157,246.500,258.2964,253.6246,242.476,274.5643,253.9681,253.7964,0.1318,,0.8318,, ,, , ,25.2300,,25.2292,,0.8496,80.8642,,,,1.6308E+02,,1.0000E-12,,11.7281,11.7352,0.0941,273.739,91.926,90.439,,,,,,,,,,,,
CalCOFI,2101RL,077,,2101_077d,03-Feb-2021 15:26:20,03-Feb-2021 07:26:20,35.54472,-123.07454,070.0 070.0,070.0,070.0,36.000,36.267,,11.8138,,11.8174,,11.8156,33.2128,,33.2186,33.2121,,33.2141,33.2164,5.6516,,5.9149,5.8044,5.5361,,5.8779,5.7877,5.7961,246.186,257.9677,253.2994,241.155,274.2151,252.5709,252.9352,0.1155,,0.6982,, ,, , ,25.2369,,25.2356,,0.8383,81.0923,,,,1.4322E+02,,1.0000E-12,,11.8092,11.8128,0.0968,273.117,91.984,90.110,,,,,,,,,,,,
CalCOFI,2101RL,077,,2101_077d,03-Feb-2021 15:26:22,03-Feb-2021 07:26:22,35.54472,-123.07455,070.0 070.0,070.0,070.0,37.000,37.274,,11.8563,,11.8586,,11.8575,33.2258,,33.2316,33.2248,,33.2268,33.2292,5.6284,,5.8906,5.7804,5.5374,,5.8793,5.7891,5.7848,245.176,256.9104,252.2536,241.211,273.0920,252.6301,252.4419,0.1097,,0.6507,, ,, , ,25.2391,,25.2379,,0.8245,81.3727,,,,1.2726E+02,,1.0000E-12,,11.8516,11.8539,0.0996,272.938,91.696,90.217,,,,,,,,,,,,
CalCOFI,2101RL,077,,2101_077d,03-Feb-2021 15:26:24,03-Feb-2021 07:26:24,35.54472,-123.07456,070.0 070.0,070.0,070.0,38.000,38.282,,11.8905,,11.8939,,11.8922,33.2366,,33.2424,33.2356,,33.2376,33.2400,5.5978,,5.8586,5.7488,5.4932,,5.8323,5.7424,5.7456,243.843,255.5151,250.8733,239.287,271.6096,250.5952,250.7343,0.1021,,0.5884,, ,, , ,25.2411,,25.2397,,0.8103,81.6624,,,,1.4756E+02,,1.0000E-12,,11.8857,11.8891,0.1023,272.773,91.270,89.570,,,,,,,,,,,,
CalCOFI,2101RL,077,,2101_077d,03-Feb-2021 15:26:26,03-Feb-2021 07:26:26,35.54472,-123.07456,070.0 070.0,070.0,070.0,39.000,39.289,,11.9262,,11.9291,,11.9277,33.2484,,33.2542,33.2478,,33.2498,33.2520,5.5442,,5.8025,5.6933,5.4351,,5.7706,5.6811,5.6872,241.507,253.0697,248.4544,236.756,269.0120,247.9183,248.1864,0.0968,,0.5450,, ,, , ,25.2436,,25.2427,,0.8118,81.6319,,,,1.5514E+02,,1.0000E-12,,11.9212,11.9241,0.1051,272.557,90.470,88.696,,,,,,,,,,,,
CalCOFI,2101RL,077,,2101_077d,03-Feb-2021 15:26:27,03-Feb-2021 07:26:27,35.54472,-123.07456,070.0 070.0,070.0,070.0,40.000,40.297,,11.9994,,12.0072,,12.0033,33.2749,,33.2807,33.2762,,33.2782,33.2795,5.5031,,5.7594,5.6509,5.4007,,5.7341,5.6447,5.6478,239.716,251.1949,246.5999,235.256,267.0204,246.3318,246.4659,0.0848,,0.4467,, ,, , ,25.2505,,25.2500,,0.7973,81.9278,,,,1.5248E+02,,1.0000E-12,,11.9942,12.0021,0.1078,271.934,89.953,88.295,,,,,,,,,,,,
CalCOFI,2101RL,077,,2101_077d,03-Feb-2021 15:26:28,03-Feb-2021 07:26:28,35.54472,-123.07456,070.0 070.0,070.0,070.0,41.000,41.304,,12.0786,,12.0814,,12.0800,33.2994,,33.3052,33.2989,,33.3009,33.3031,5.4978,,5.7539,5.6454,5.3773,,5.7092,5.6200,5.6327,239.483,250.9510,246.3586,234.237,266.7613,245.2540,245.8063,0.0699,,0.3246,, ,, , ,25.2547,,25.2537,,0.7880,82.1190,,,,1.5073E+02,,1.0000E-12,,12.0734,12.0761,0.1106,271.573,90.030,88.062,,,,,,,,,,,,
CalCOFI,2101RL,077,,2101_077d,03-Feb-2021 15:26:30,03-Feb-2021 07:26:30,35.54472,-123.07458,070.0 070.0,070.0,070.0,42.000,42.312,,12.1045,,12.1112,,12.1079,33.3104,,33.3162,33.3118,,33.3138,33.3150,5.4762,,5.7313,5.6231,5.3570,,5.6877,5.5986,5.6109,238.540,249.9639,245.3821,233.349,265.7126,244.3148,244.8485,0.0645,,0.2803,, ,, , ,25.2583,,25.2581,,0.7751,82.3842,,,,1.4261E+02,,1.0000E-12,,12.0991,12.1058,0.1133,271.251,89.730,87.791,,,,,,,,,,,,
CalCOFI,2101RL,077,,2101_077d,03-Feb-2021 15:26:33,03-Feb-2021 07:26:33,35.54472,-123.07460,070.0 070.0,070.0,070.0,43.000,43.319,,12.0972,,12.0937,,12.0955,33.3177,,33.3235,33.3167,,33.3187,33.3211,5.3785,,5.6290,5.5221,5.2969,,5.6238,5.5351,5.5286,234.285,245.5097,240.9762,230.730,260.9810,241.5448,241.2605,0.0594,,0.2385,, ,, , ,25.2654,,25.2653,,0.7652,82.5893,,,,1.2837E+02,,1.0000E-12,,12.0916,12.0881,0.1160,270.608,88.121,86.777,,,,,,,,,,,,
CalCOFI,2101RL,077,,2101_077d,03-Feb-2021 15:26:35,03-Feb-2021 07:26:35,35.54474,-123.07460,070.0 070.0,070.0,070.0,44.000,44.327,,12.0735,,12.0732,,12.0734,33.3181,,33.3239,33.3166,,33.3186,33.3213,5.3250,,5.5730,5.4668,5.2421,,5.5656,5.4773,5.4721,231.951,243.0665,238.5594,228.342,258.3856,239.0191,238.7893,0.0584,,0.2303,, ,, , ,25.2702,,25.2691,,0.7632,82.6301,,,,1.3519E+02,,1.0000E-12,,12.0679,12.0675,0.1187,270.170,87.201,85.843,,,,,,,,,,,,
CalCOFI,2101RL,077,,2101_077d,03-Feb-2021 15:26:36,03-Feb-2021 07:26:36,35.54474,-123.07464,070.0 070.0,070.0,070.0,45.000,45.334,,12.0785,,12.0801,,12.0793,33.3338,,33.3396,33.3342,,33.3362,33.3379,5.2795,,5.5254,5.4197,5.1873,,5.5074,5.4194,5.4196,229.966,240.9886,236.5039,225.954,256.1782,236.4934,236.4987,0.0543,,0.1967,, ,, , ,25.2815,,25.2815,,0.7599,82.6983,,,,1.4365E+02,,1.0000E-12,,12.0727,12.0743,0.1215,269.123,86.473,84.967,,,,,,,,,,,,
CalCOFI,2101RL,077,,2101_077d,03-Feb-2021 15:26:37,03-Feb-2021 07:26:37,35.54474,-123.07464,070.0 070.0,070.0,070.0,46.000,46.342,,12.0681,,12.0600,,12.0641,33.3449,,33.3507,33.3435,,33.3455,33.3481,5.2429,,5.4871,5.3819,5.1535,,5.4715,5.3837,5.3828,228.373,239.3211,234.8544,224.476,254.4068,234.9302,234.8923,0.0504,,0.1648,, ,, , ,25.2920,,25.2925,,0.7585,82.7275,,,,1.5165E+02,,1.0000E-12,,12.0622,12.0541,0.1242,268.145,85.862,84.382,,,,,,,,,,,,
CalCOFI,2101RL,077,,2101_077d,03-Feb-2021 15:26:40,03-Feb-2021 07:26:40,35.54474,-123.07464,070.0 070.0,070.0,070.0,47.000,47.350,,11.9862,,11.9540,,11.9701,33.3411,,33.3469,33.3386,,33.3406,33.3438,5.2074,,5.4500,5.3452,5.1320,,5.4487,5.3610,5.3531,226.824,237.6996,233.2504,223.538,252.6842,233.9381,233.5943,0.0486,,0.1500,, ,, , ,25.3046,,25.3086,,0.7542,82.8158,,,,1.5878E+02,,1.0000E-12,,11.9801,11.9480,0.1269,266.971,85.132,83.841,,,,,,,,,,,,
CalCOFI,2101RL,077,,2101_077d,03-Feb-2021 15:26:42,03-Feb-2021 07:26:42,35.54473,-123.07465,070.0 070.0,070.0,070.0,48.000,48.357,,11.8799,,11.8816,,11.8808,33.3299,,33.3357,33.3283,,33.3303,33.3330,5.2200,,5.4632,5.3582,5.1247,,5.4409,5.3533,5.3558,227.369,238.2701,233.8148,223.217,253.2903,233.5986,233.7067,0.0489,,0.1525,, ,, , ,25.3157,,25.3142,,0.7526,82.8485,,,,1.6588E+02,,1.0000E-12,,11.8738,11.8755,0.1295,265.923,85.141,83.588,,,,,,,,,,,,
CalCOFI,2101RL,077,,2101_077d,03-Feb-2021 15:26:43,03-Feb-2021 07:26:43,35.54472,-123.07466,070.0 070.0,070.0,070.0,49.000,49.365,,11.8155,,11.8148,,11.8152,33.3164,,33.3222,33.3143,,33.3163,33.3193,5.2333,,5.4771,5.3720,5.1306,,5.4472,5.3595,5.3658,227.949,238.8772,234.4154,223.475,253.9353,233.8715,234.1435,0.0494,,0.1566,, ,, , ,25.3173,,25.3158,,0.7521,82.8590,,,,1.4864E+02,,1.0000E-12,,11.8093,11.8086,0.1322,265.793,85.235,83.560,,,,,,,,,,,,
CalCOFI,2101RL,077,,2101_077d,03-Feb-2021 15:26:46,03-Feb-2021 07:26:46,35.54470,-123.07468,070.0 070.0,070.0,070.0,50.000,50.372,,11.7803,,11.7718,,11.7761,33.3082,,33.3140,33.3054,,33.3074,33.3107,5.1851,,5.4266,5.3221,5.1010,,5.4158,5.3283,5.3252,225.849,236.6789,232.2409,222.185,251.6000,232.5071,232.3740,0.0510,,0.1697,, ,, , ,25.3175,,25.3169,,0.7533,82.8338,,,,1.4306E+02,,1.0000E-12,,11.7740,11.7655,0.1349,265.798,84.383,82.998,50,,33.2835,5.157,225.02,,,,,,,
CalCOFI,2101RL,077,,2101_077d,03-Feb-2021 15:26:48,03-Feb-2021 07:26:48,35.54470,-123.07468,070.0 070.0,070.0,070.0,51.000,51.380,,11.7033,,11.6892,,11.6963,33.2932,,33.2990,33.2897,,33.2917,33.2954,5.1397,,5.3791,5.2752,5.0660,,5.3786,5.2913,5.2833,223.872,234.6094,230.1937,220.663,249.4016,230.8973,230.5455,0.0514,,0.1730,, ,, , ,25.3201,,25.3200,,0.7526,82.8476,,,,1.5491E+02,,1.0000E-12,,11.6969,11.6828,0.1376,265.566,83.501,82.278,,,,,,,,,,,,
CalCOFI,2101RL,077,,2101_077d,03-Feb-2021 15:26:50,03-Feb-2021 07:26:50,35.54468,-123.07470,070.0 070.0,070.0,070.0,52.000,52.387,,11.5709,,11.5572,,11.5641,33.2759,,33.2817,33.2768,,33.2788,33.2803,5.0956,,5.3330,5.2296,5.0094,,5.3185,5.2316,5.2306,221.946,232.5933,228.1994,218.192,247.2598,228.2838,228.2416,0.0506,,0.1664,, ,, , ,25.3311,,25.3343,,0.7550,82.7999,,,,1.6416E+02,,1.0000E-12,,11.5643,11.5507,0.1402,264.526,82.543,81.124,,,,,,,,,,,,
CalCOFI,2101RL,077,,2101_077d,03-Feb-2021 15:26:52,03-Feb-2021 07:26:52,35.54468,-123.07472,070.0 070.0,070.0,070.0,53.000,53.395,,11.5311,,11.5307,,11.5309,33.2975,,33.3033,33.3000,,33.3020,33.3027,4.9783,,5.2102,5.1084,4.8985,,5.2007,5.1145,5.1115,216.832,227.2399,222.9039,213.359,241.5730,223.1722,223.0381,0.0474,,0.1402,, ,, , ,25.3552,,25.3572,,0.7555,82.7898,,,,1.6713E+02,,1.0000E-12,,11.5245,11.5241,0.1429,262.262,80.586,79.296,,,,,,,,,,,,